Location: La Sioule Rivi�re
(46.3664°N, 3.3197°E)
Time: 12:30:35
(UTC+00:00)

Cosmos 220 Rocket - Pass Details

Date: 29 October 2020
Orbit: 574 x 618 km, 74.0° (Epoch: 23 November)

Event Time Altitude Azimuth Distance (km) Brightness Sun altitude
Rises 17:44:51 0° 184° (S) 2,830 7.6 -12.4°
Reaches altitude 10° 17:47:07 10° 179° (S) 1,940 6.7 -12.8°
Maximum altitude 17:51:16 47° 106° (ESE) 812 4.3 -13.5°
Drops below altitude 10° 17:55:30 10° 33° (NNE) 1,978 6.3 -14.2°
Enters shadow 17:55:49 - 32° (NNE) 2,101 6.4 -14.3°
